[[{"header":{"parameterUnit":"m.s-1","parameterCategory":1,"la1":30.2991,"la2":30.254,"lo1":-89.0895,"lo2":-89.0444,"dx":0.0017,"dy":0.0017,"nx":28,"ny":28,"refTime":"2023-02-12T09:00:00:Z","depth":0,"parameterNumber":2,"parameterNumberName":"U-component_of_WINDS"},"data":[0,0,0,0,0,0,0,0,0,0,0,0,0,0,0,0,0,0,0,0,0,0,0,0,0,0,0,0,0,0,0,0,0,0,0,0,0,0,0,0,0,0,0,0,0,0,0,0,0,0,0,0,0,0,0,0,0,0,4.494,4.4941,0,4.5071,4.5072,4.5074,4.5055,4.5053,4.5051,4.5049,4.5183,4.5189,4.5194,0,0,0,0,0,0,0,0,0,0,0,0,0,4.4676,4.4681,4.494,4.4941,4.4943,4.507,4.5072,4.5074,4.5056,4.5053,4.505,4.5048,4.5182,4.5188,4.5195,0,0,0,0,0,0,0,0,0,0,0,0,0,4.4797,4.4683,4.4939,4.4949,4.4951,4.507,4.5072,4.5074,4.5056,4.5053,4.505,4.5047,4.5179,4.5187,4.5196,4.5313,0,0,4.5221,4.5225,0,0,0,0,0,0,0,0,4.479,4.4807,4.4946,4.4949,4.4951,4.5043,4.5028,4.5154,4.5057,4.5016,4.5049,4.5045,4.5139,4.5151,4.5183,4.5319,4.5325,4.5222,4.5227,4.5231,4.5233,0,0,0,0,0,0,0,4.4782,4.4801,4.4991,4.4948,4.4951,4.4948,4.4961,4.5052,4.5095,4.502,4.5019,4.5034,4.514,4.5175,4.5186,4.5327,4.5222,4.5229,4.5235,4.5238,4.557,4.5574,0,0,0,0,0,0,4.4771,4.4794,4.4987,4.4995,4.4861,4.4955,4.497,4.5017,4.5094,4.5102,4.5037,4.5033,4.5162,4.5176,4.519,4.5335,4.5231,4.5239,4.5244,4.5566,4.5571,4.5575,0,0,0,0,0,0,4.4765,4.4788,4.4982,4.4895,4.4919,4.4963,4.5016,4.5021,4.5056,4.5107,4.5114,4.5064,4.516,4.5178,4.5283,4.5339,4.5243,4.525,4.5562,4.5568,4.5573,4.5623,0,0,0,0,0,0,4.4758,4.4786,4.483,4.4896,4.4924,4.5072,4.5019,4.5026,4.507,4.5066,4.5134,4.5142,4.5159,4.5271,4.5292,4.5349,4.5257,4.5557,4.5564,4.5571,4.5617,4.563,4.5641,0,0,0,0,0,4.4748,4.4839,4.4833,4.4856,4.498,4.5075,4.5092,4.5108,4.5075,4.512,4.5154,4.514,4.533,4.5282,4.5305,4.5366,4.5554,4.5562,4.5571,4.5611,4.5627,4.5641,0,0,0,0,0,0,4.4778,4.4847,4.4841,4.4956,4.501,4.5072,4.513,4.5124,4.5189,4.5183,4.5201,4.5216,4.5323,4.5355,4.53,4.5485,4.5437,4.5451,4.546,4.5476,4.5488,4.5478,4.5264,0,0,0,0,0,4.4798,4.487,4.4926,4.5022,4.5049,4.5085,4.5127,4.5136,4.5193,4.5215,4.5256,4.5312,4.5385,4.5432,4.5501,4.5621,4.5637,4.5675,4.5687,4.5697,4.5708,4.5777,4.5795,4.5603,4.5603,4.5603,0,0,4.484,4.4887,4.493,4.5029,4.5072,4.5147,4.5104,4.5184,4.524,4.5228,4.533,4.5362,4.5426,4.554,4.5592,4.5569,4.5765,4.5707,4.5715,4.5721,4.5787,4.5805,4.5822,4.5609,4.5608,4.5607,0,0,4.4955,4.4996,4.5082,4.5126,4.5192,4.5216,4.5236,4.53,4.5322,4.5424,4.5417,4.5484,4.5608,4.5655,4.5694,4.583,4.5821,4.5852,4.5916,4.5982,4.5998,4.6011,4.6061,4.6079,4.5864,4.5864,4.5864,0,4.4998,4.511,4.5126,4.5208,4.5252,4.5245,4.5333,4.5375,4.546,4.5492,4.5465,4.5623,4.5665,4.5791,4.5824,4.5856,4.5882,4.5844,4.5994,4.6008,4.6021,4.6069,4.6087,4.5867,4.5867,4.5866,4.5866,0,4.5161,4.5239,4.53,4.5383,4.5435,4.5519,4.5549,4.5599,4.5604,4.5631,4.5737,4.5788,4.5869,4.5899,4.5904,4.6027,4.6012,4.599,4.5942,4.6042,4.6088,4.6106,4.5872,4.5871,4.587,4.5869,0,0,4.5297,4.539,4.5412,4.5451,4.5525,4.5586,4.5671,4.575,4.5794,4.5853,4.5926,4.6032,4.6013,4.6059,4.6069,4.6128,4.6234,4.6099,4.6101,4.6123,4.6375,4.6392,4.6413,4.6229,4.6232,4.6235,4.637,0,4.542,4.5569,4.5588,4.5721,4.5794,4.579,4.5864,4.5918,4.5946,4.6013,4.6044,4.612,4.6088,4.6116,4.6174,4.6209,4.6285,4.6199,4.6298,4.6301,4.6283,4.6436,4.6454,4.6579,4.6388,4.6391,4.6393,0,4.5582,4.5648,4.5789,4.5855,4.5886,4.5952,4.6028,4.6092,4.6154,4.617,4.6222,4.6226,4.6316,4.6265,4.6389,4.6331,4.6372,4.6396,4.6401,4.6411,4.6354,4.6452,4.6619,4.6638,4.6421,4.6419,4.6417,0,4.5669,4.5792,4.5893,4.5927,4.6006,4.6053,4.6088,4.6147,4.6194,4.6261,4.6292,4.6368,4.641,4.6469,4.6494,4.6454,4.6618,4.6568,4.6635,4.6635,4.667,4.6667,4.6847,4.6695,4.6695,4.6695,4.6694,0,4.5805,4.5891,4.5934,4.5996,4.6094,4.6115,4.6212,4.6245,4.6298,4.6368,4.6368,4.6434,4.6462,4.6533,4.6553,4.6654,4.6673,4.669,4.6694,4.669,4.6688,4.6718,4.671,4.67,4.6699,4.6698,4.6697,0,4.5918,4.595,4.606,4.6126,4.6145,4.6215,4.6272,4.6333,4.6361,4.645,4.6472,4.6516,4.6599,4.663,4.6731,4.6745,4.6863,4.686,4.6842,4.6843,4.6909,4.6903,4.7114,4.7144,4.6972,4.6974,4.6975,0,4.6003,4.607,4.6144,4.6191,4.6228,4.6303,4.6352,4.6376,4.6427,4.6505,4.6557,4.664,4.6708,4.6841,4.6883,4.6961,4.6961,4.703,4.6972,4.6967,4.6964,4.696,4.6968,4.704,4.7042,4.7043,4.7045,0,4.615,4.6164,4.6234,4.6311,4.6369,4.6431,4.649,4.6529,4.6562,4.662,4.6706,4.6758,4.6863,4.6946,4.7026,4.7064,4.7061,4.7062,4.7082,4.7079,4.7067,4.7076,4.6872,4.7057,4.7056,4.7055,4.7054,4.7054,4.6253,4.6313,4.6376,4.6455,4.6503,4.6559,4.6621,4.6657,4.6729,4.6816,4.6826,4.6918,4.6981,4.7089,4.7131,4.7204,4.7186,4.7214,4.7221,4.7228,4.7234,4.7055,4.7219,4.7218,4.7218,4.7218,4.7218,0,4.6402,4.6443,4.6515,4.6599,4.6662,4.6654,4.6721,4.6774,4.6855,4.6914,4.6981,4.7081,4.7162,4.7211,4.7293,4.7343,4.7344,4.7364,4.7361,4.737,4.7245,4.722,4.7362,4.7362,4.7362,4.7362,4.7362,4.7362,4.6487,4.6589,4.661,4.6737,4.6777,4.6868,4.6907,4.6959,4.7007,4.7118,4.7186,4.7217,4.7273,4.736,4.7435,4.7447,4.7478,4.75,4.7511,4.7393,4.7379,4.7364,4.7341,4.7506,4.7506,4.7631,4.7632,4.7633]},{"header":{"parameterUnit":"m.s-1","parameterCategory":1,"la1":30.2991,"la2":30.254,"lo1":-89.0895,"lo2":-89.0444,"dx":0.0017,"dy":0.0017,"nx":28,"ny":28,"refTime":"2023-02-12T09:00:00:Z","depth":0,"parameterNumber":3,"parameterNumberName":"V-component_of_WINDS"},"data":[0,0,0,0,0,0,0,0,0,0,0,0,0,0,0,0,0,0,0,0,0,0,0,0,0,0,0,0,0,0,0,0,0,0,0,0,0,0,0,0,0,0,0,0,0,0,0,0,0,0,0,0,0,0,0,0,0,0,-5.7859,-5.7861,0,-5.8003,-5.8004,-5.8006,-5.7996,-5.7994,-5.7991,-5.7989,-5.8133,-5.8138,-5.8144,0,0,0,0,0,0,0,0,0,0,0,0,0,-5.7574,-5.758,-5.7859,-5.7861,-5.7863,-5.8003,-5.8004,-5.8006,-5.7996,-5.7993,-5.7991,-5.7988,-5.8131,-5.8138,-5.8145,0,0,0,0,0,0,0,0,0,0,0,0,0,-5.7706,-5.7581,-5.7859,-5.7875,-5.7877,-5.8002,-5.8005,-5.8007,-5.7997,-5.7993,-5.799,-5.7987,-5.8129,-5.8137,-5.8146,-5.8263,0,0,-5.8172,-5.8176,0,0,0,0,0,0,0,0,-5.7698,-5.7716,-5.787,-5.7874,-5.7877,-5.7978,-5.7957,-5.8093,-5.7997,-5.7951,-5.7989,-5.7986,-5.8084,-5.8096,-5.813,-5.827,-5.8276,-5.8173,-5.8178,-5.8182,-5.8184,0,0,0,0,0,0,0,-5.7689,-5.771,-5.7916,-5.7873,-5.7877,-5.7874,-5.7889,-5.7982,-5.8033,-5.7955,-5.7955,-5.7972,-5.8085,-5.8121,-5.8133,-5.8278,-5.8173,-5.818,-5.8186,-5.8189,-5.8524,-5.8527,0,0,0,0,0,0,-5.7677,-5.7703,-5.7911,-5.792,-5.7778,-5.7882,-5.7899,-5.7949,-5.8032,-5.8042,-5.7974,-5.7971,-5.8108,-5.8123,-5.8138,-5.8282,-5.8182,-5.819,-5.8195,-5.852,-5.8524,-5.8528,0,0,0,0,0,0,-5.7671,-5.7696,-5.7905,-5.7811,-5.7838,-5.789,-5.7946,-5.7953,-5.799,-5.8047,-5.8056,-5.8003,-5.8106,-5.8126,-5.8233,-5.8287,-5.8194,-5.8202,-5.8516,-5.8521,-5.8526,-5.8571,0,0,0,0,0,0,-5.7663,-5.7694,-5.7739,-5.7813,-5.7843,-5.7999,-5.795,-5.7958,-5.8005,-5.8002,-5.8076,-5.8085,-5.8105,-5.822,-5.8241,-5.8297,-5.8209,-5.8511,-5.8518,-5.8525,-5.8565,-5.8577,-5.8588,0,0,0,0,0,-5.7653,-5.7745,-5.7741,-5.7767,-5.7901,-5.8002,-5.8019,-5.8041,-5.801,-5.8056,-5.8093,-5.8083,-5.8278,-5.8231,-5.8255,-5.8314,-5.8508,-5.8516,-5.8524,-5.856,-5.8575,-5.8588,0,0,0,0,0,0,-5.7674,-5.7754,-5.7752,-5.787,-5.793,-5.8,-5.8058,-5.8056,-5.8125,-5.8119,-5.8142,-5.8159,-5.8267,-5.8301,-5.8248,-5.8433,-5.8388,-5.8402,-5.8407,-5.8422,-5.8433,-5.8423,-5.8216,0,0,0,0,0,-5.7693,-5.7769,-5.7835,-5.7933,-5.7963,-5.8006,-5.805,-5.8063,-5.8125,-5.8149,-5.8194,-5.8253,-5.8328,-5.8377,-5.8449,-5.857,-5.8586,-5.8623,-5.8634,-5.8644,-5.8655,-5.8723,-5.874,-5.8556,-5.8555,-5.8555,0,0,-5.7732,-5.7786,-5.7832,-5.7939,-5.7986,-5.8064,-5.8027,-5.811,-5.8168,-5.8161,-5.8266,-5.8301,-5.8369,-5.8484,-5.8537,-5.8516,-5.871,-5.8654,-5.8661,-5.8668,-5.8733,-5.8751,-5.8766,-5.8561,-5.856,-5.8559,0,0,-5.7844,-5.7891,-5.798,-5.8028,-5.8101,-5.813,-5.8151,-5.8222,-5.8246,-5.8352,-5.8349,-5.8418,-5.8546,-5.8595,-5.8637,-5.877,-5.8763,-5.8792,-5.8852,-5.8919,-5.8933,-5.8946,-5.8995,-5.9012,-5.8803,-5.8803,-5.8804,0,-5.7883,-5.8001,-5.8025,-5.811,-5.8157,-5.8157,-5.8246,-5.8292,-5.8384,-5.8417,-5.8392,-5.8555,-5.86,-5.8728,-5.8761,-5.8794,-5.882,-5.8784,-5.8929,-5.8943,-5.8955,-5.9002,-5.902,-5.8807,-5.8806,-5.8806,-5.8806,0,-5.8046,-5.8128,-5.819,-5.8282,-5.8336,-5.8423,-5.846,-5.8512,-5.852,-5.8551,-5.8659,-5.8714,-5.8799,-5.883,-5.8837,-5.8959,-5.8944,-5.8924,-5.8879,-5.8976,-5.902,-5.9038,-5.8811,-5.881,-5.8809,-5.8808,0,0,-5.8174,-5.8279,-5.8302,-5.8344,-5.8425,-5.8489,-5.8576,-5.866,-5.8705,-5.8769,-5.8843,-5.8952,-5.8936,-5.8983,-5.8997,-5.9055,-5.9158,-5.9028,-5.903,-5.9051,-5.9297,-5.9312,-5.9332,-5.9154,-5.9158,-5.9161,-5.9292,0,-5.8294,-5.845,-5.8475,-5.8612,-5.8688,-5.869,-5.8766,-5.8824,-5.8856,-5.8925,-5.8959,-5.9037,-5.9008,-5.9038,-5.9095,-5.9133,-5.9208,-5.9124,-5.9223,-5.9227,-5.9207,-5.9355,-5.937,-5.9491,-5.9309,-5.9312,-5.9314,0,-5.8455,-5.8526,-5.8671,-5.8744,-5.8777,-5.8845,-5.8925,-5.8991,-5.9057,-5.9076,-5.9131,-5.9138,-5.9229,-5.918,-5.9306,-5.9248,-5.9291,-5.9316,-5.9321,-5.9331,-5.9276,-5.937,-5.953,-5.9548,-5.9341,-5.9339,-5.9337,0,-5.8535,-5.8666,-5.8771,-5.8806,-5.8894,-5.8942,-5.8981,-5.9044,-5.9093,-5.9163,-5.9195,-5.9274,-5.9317,-5.9378,-5.9406,-5.9368,-5.953,-5.9484,-5.9549,-5.9548,-5.9583,-5.958,-5.9752,-5.9609,-5.9609,-5.9608,-5.9608,0,-5.8668,-5.8756,-5.8808,-5.8872,-5.8972,-5.9,-5.9098,-5.9135,-5.9192,-5.9263,-5.9268,-5.9335,-5.9368,-5.944,-5.9463,-5.9564,-5.9583,-5.9601,-5.9606,-5.9601,-5.9599,-5.9629,-5.9621,-5.9613,-5.9612,-5.9611,-5.961,0,-5.8774,-5.8812,-5.8926,-5.9,-5.9021,-5.9092,-5.9155,-5.9217,-5.9249,-5.934,-5.9362,-5.9412,-5.9497,-5.9532,-5.9635,-5.965,-5.9767,-5.9765,-5.9745,-5.9747,-5.981,-5.9804,-6.0008,-6.0037,-5.9874,-5.9875,-5.9877,0,-5.8856,-5.8925,-5.9007,-5.9056,-5.9097,-5.9175,-5.9226,-5.9257,-5.931,-5.9392,-5.9444,-5.953,-5.96,-5.9735,-5.978,-5.986,-5.986,-5.9927,-5.9872,-5.9866,-5.9863,-5.9858,-5.9866,-5.9936,-5.9938,-5.9939,-5.994,0,-5.8998,-5.9014,-5.9088,-5.917,-5.9232,-5.9297,-5.9361,-5.94,-5.944,-5.95,-5.9588,-5.9642,-5.9749,-5.9834,-5.9917,-5.9956,-5.9955,-5.9957,-5.9977,-5.9973,-5.9959,-5.9968,-5.9773,-5.9952,-5.9951,-5.995,-5.995,-5.9949,-5.9095,-5.9157,-5.9226,-5.9309,-5.936,-5.942,-5.9483,-5.9524,-5.9598,-5.9689,-5.9702,-5.9797,-5.9862,-5.9974,-6.0016,-6.0091,-6.0073,-6.0101,-6.0108,-6.0115,-6.012,-5.9947,-6.0105,-6.0105,-6.0105,-6.0105,-6.0104,0,-5.9238,-5.9283,-5.9359,-5.945,-5.9515,-5.9511,-5.9582,-5.9637,-5.972,-5.9782,-5.9852,-5.9954,-6.0036,-6.0089,-6.0172,-6.0222,-6.0224,-6.0243,-6.024,-6.0249,-6.013,-6.0105,-6.024,-6.024,-6.024,-6.024,-6.024,-6.024,-5.9321,-5.9426,-5.9451,-5.9582,-5.9625,-5.9719,-5.976,-5.9816,-5.9866,-5.998,-6.005,-6.0084,-6.0143,-6.0231,-6.0307,-6.032,-6.0351,-6.0371,-6.0384,-6.0271,-6.0257,-6.0244,-6.0221,-6.0378,-6.0378,-6.0497,-6.0498,-6.0499]}]]